Location: Augirein
(42.9320°N, 0.9181°E)
Time: 18:01:01
(UTC+00:00)

Cosmos 2058 - Pass Details

Date: 20 June 2021
Orbit: 563 x 582 km, 82.5° (Epoch: 30 July)

Event Time Altitude Azimuth Distance (km) Brightness Sun altitude
Exits shadow 00:24:15 27° 96° (E) 1,104 4.3 -23.4°
Maximum altitude 00:24:29 27° 90° (E) 1,100 4.4 -23.4°
Drops below altitude 10° 00:27:57 10° 32° (NNE) 1,864 6.4 -23.3°
Sets 00:30:22 0° 20° (NNE) 2,767 7.8 -23.2°
